Voltar ao catálogo

STARLINK-35950

AtivoComunicaçõesVLEO
NORAD 66622·PAYLOAD·🇺🇸 United States

Lançado Nov 23, 2025 de Vandenberg Space Force Base

Loading…

Próximas Passagens (próximas 24 horas)

TLE

AtualizadoSource: CelesTrak SupGP

Época: Sep 15, 2026, 03:51 UTC

1 66622C 25271F   26258.16090278  .00062547  00000+0  18471-2 0  2589
2 66622  53.1595 338.4759 0001233  85.3567 329.7066 15.34373891    12

Acompanhe STARLINK-35950 em tempo real com AllMySat

Download on the App Store